Wind_Speed
44 46 48 49 51 53 56 58 57 56 54 51 52 52 50 54 57 53 50 52 56 61 63 63 64 65 64 62 60 58 59 61 61 61 63 65 69 72 74 76 79 84 86 85 86 89 93 97 98 98 99 100 98 83 62 50 46 47 49 51 52 52 53 56 60 67 73 74 74 74 73 72 74 74 73 73 72 70 70 71 74 77 78 77 76
46 47 49 51 53 55 57 58 56 54 51 49 49 50 53 57 57 53 53 56 59 63 64 65 67 68 65 62 61 61 61 61 61 62 63 65 69 73 76 79 83 86 87 85 86 90 94 99 100 99 100 101 100 87 66 55 51 50 51 52 53 53 52 53 57 62 69 74 74 73 74 73 73 74 74 74 73 72 72 72 72 75 79 80 79
45 47 49 51 54 56 57 56 53 49 46 44 47 51 55 57 56 54 56 59 60 63 67 68 69 70 67 64 63 62 61 62 62 63 65 68 72 75 78 83 87 88 87 86 88 91 96 100 101 100 100 101 102 89 69 60 57 55 54 52 53 54 53 52 54 58 64 71 74 72 72 73 74 74 73 75 75 74 74 73 73 74 77 81 82
46 47 48 50 54 55 51 49 49 45 43 46 51 55 55 56 56 58 60 60 59 65 70 70 71 72 68 64 63 62 63 64 65 66 69 72 75 76 81 87 90 88 87 88 90 93 98 101 101 101 100 101 102 89 70 64 64 61 58 54 52 53 54 53 54 55 59 65 71 72 70 71 73 74 73 74 75 76 76 75 75 75 76 79 82
46 46 46 48 52 50 45 45 49 49 50 54 58 58 57 58 61 64 65 63 63 69 71 69 71 71 67 64 63 63 64 67 68 70 72 75 77 80 86 91 91 89 89 90 93 96 100 102 102 102 101 101 100 87 73 70 70 66 61 55 52 51 52 54 54 54 56 61 66 69 69 69 72 74 74 73 74 76 77 78 77 76 76 77 80
45 44 43 45 46 42 44 49 52 55 56 58 60 58 58 61 63 65 67 66 69 71 69 68 70 69 66 64 64 64 66 68 70 72 75 77 79 84 90 92 91 91 92 94 96 98 101 102 102 102 101 102 99 88 79 76 74 70 63 57 53 51 50 52 54 54 56 58 62 66 67 67 69 72 73 73 74 74 75 78 79 79 78 77 78
43 41 40 42 40 38 45 51 52 53 55 57 57 57 59 62 63 66 69 70 71 70 68 69 69 66 64 65 65 65 66 68 71 73 75 78 82 87 91 91 92 93 95 96 97 100 101 102 103 102 102 103 99 89 83 81 77 73 67 59 54 52 50 50 53 54 56 57 59 62 65 66 67 69 71 72 73 74 73 75 78 80 80 78 78
42 40 40 39 38 39 44 47 48 52 54 54 54 55 60 64 67 71 73 71 70 68 67 68 66 63 64 66 66 67 68 70 72 74 76 80 85 89 91 92 94 95 97 98 100 101 102 103 103 102 103 104 99 91 85 82 80 76 70 62 56 53 51 50 51 53 55 57 58 59 62 65 66 66 68 71 72 74 74 73 75 79 81 80 79
41 40 41 39 36 36 38 41 46 50 53 53 53 58 64 67 69 71 69 67 67 65 65 66 65 64 66 68 69 70 70 72 73 75 79 83 86 90 93 95 96 97 98 99 101 102 102 102 103 103 105 105 101 94 87 83 81 77 72 65 58 55 53 51 50 51 53 56 58 58 60 63 66 66 67 69 70 72 74 73 73 77 79 80 81
43 42 42 42 38 32 32 37 44 49 54 57 59 62 65 66 67 68 66 66 67 67 66 66 65 67 70 70 70 70 71 73 75 78 82 86 90 94 97 98 98 98 99 100 101 102 102 102 103 104 106 106 103 96 89 84 81 78 73 67 60 56 53 51 50 50 52 55 58 59 59 61 65 66 68 68 68 69 72 73 74 76 78 79 81
47 45 43 44 42 36 34 39 45 48 53 56 56 59 63 65 67 68 69 70 70 69 68 67 67 70 71 70 71 71 72 75 79 83 87 90 94 97 98 99 99 98 98 99 100 101 102 103 104 105 108 108 105 98 91 85 82 78 73 67 61 57 53 51 50 49 50 53 56 58 59 61 63 65 68 69 69 69 70 71 73 76 77 78 79
49 48 45 43 43 42 41 45 49 52 55 55 56 61 66 69 70 71 71 71 70 69 68 68 69 70 70 70 72 74 77 81 85 89 92 95 98 99 99 98 97 97 99 100 100 101 103 104 105 108 111 111 107 99 90 85 82 78 73 67 62 57 53 50 49 48 49 50 53 56 58 60 62 64 66 68 70 71 70 70 73 76 78 78 79
52 52 48 43 43 47 49 51 52 54 57 59 59 62 65 67 68 69 70 70 69 68 68 69 70 70 70 72 76 80 84 88 91 94 96 99 101 99 96 95 95 98 102 102 101 102 104 105 107 110 112 114 108 97 88 85 83 79 73 67 61 57 53 50 48 48 47 48 50 53 56 57 60 64 65 66 68 71 71 71 73 75 78 80 80
54 53 50 45 46 51 54 57 57 56 58 61 61 61 63 65 66 67 68 69 70 69 69 69 71 74 77 80 84 88 91 94 96 99 100 101 99 95 92 94 97 101 103 102 103 104 105 106 109 111 114 115 106 93 86 86 85 80 75 68 62 57 53 50 48 46 46 46 47 50 52 54 57 61 63 63 65 69 71 72 74 76 78 80 81
55 52 51 48 49 53 55 57 59 59 59 62 64 65 65 66 66 66 68 69 70 70 71 73 77 82 85 88 91 94 97 99 101 101 99 96 94 92 92 96 100 102 102 102 104 105 106 108 110 112 116 114 101 89 86 86 86 82 76 69 63 58 53 50 47 45 44 44 45 47 49 51 53 56 59 59 61 65 67 70 75 76 78 80 82
56 56 55 51 52 57 56 54 55 57 59 64 67 68 69 70 70 70 70 71 72 74 77 80 85 89 92 95 97 99 100 100 99 97 95 95 94 92 93 98 102 103 103 104 106 106 108 110 111 115 117 108 94 87 86 85 84 81 74 68 63 58 53 49 47 44 43 42 43 45 46 47 49 51 54 54 55 58 60 65 71 75 77 80 82
60 59 57 51 53 58 58 56 55 56 60 66 69 71 75 76 77 77 76 76 77 79 83 87 91 95 97 98 98 98 98 97 95 95 96 97 94 90 94 101 104 104 105 107 107 108 110 111 113 117 113 100 89 86 85 84 82 77 71 66 61 57 52 49 46 43 42 41 42 43 43 43 45 47 49 49 49 51 54 58 65 71 74 78 81
62 62 58 53 56 62 63 64 61 59 63 69 71 72 75 77 79 79 78 79 81 85 89 92 94 96 96 95 94 95 95 95 96 98 98 95 91 91 97 103 104 106 108 109 109 110 111 112 116 116 106 93 87 87 85 84 81 74 67 63 59 55 51 47 45 43 40 40 40 41 40 40 41 43 45 46 44 45 48 52 59 65 70 73 78
63 63 61 59 61 65 66 65 62 61 67 72 72 72 75 77 79 81 82 84 87 91 94 95 95 96 95 94 94 95 97 98 99 98 95 92 92 96 101 103 105 109 111 111 111 111 112 115 116 109 96 88 88 88 86 84 78 71 65 60 56 52 49 46 43 41 40 38 38 38 37 37 38 39 41 42 41 41 44 49 54 60 65 69 73
64 64 65 65 66 66 66 65 62 63 68 71 71 74 79 81 83 84 85 86 89 91 93 93 95 95 92 91 92 92 92 92 92 91 89 91 95 99 102 105 108 111 111 110 111 112 114 116 111 99 90 88 89 88 87 83 76 68 62 56 52 49 46 44 41 39 38 37 35 34 34 34 35 36 37 38 39 39 42 46 50 55 61 64 68
66 66 67 68 67 66 66 65 65 67 69 71 74 77 79 82 84 85 86 87 89 91 92 93 94 91 88 88 90 88 86 87 89 90 92 95 98 101 104 108 110 111 111 111 113 115 115 111 101 91 88 89 89 89 86 80 73 66 59 53 49 46 44 41 39 37 36 35 33 31 31 31 33 34 34 36 38 38 39 43 47 51 57 60 63
68 69 69 68 67 66 66 67 68 69 70 71 74 76 77 79 81 82 84 86 86 86 86 86 87 86 85 87 88 88 90 93 95 96 97 99 102 105 107 109 111 112 113 113 115 115 111 102 93 89 89 90 90 88 83 77 70 62 56 51 46 43 41 39 37 34 32 31 31 29 29 29 31 32 32 34 37 37 37 39 42 45 51 57 60
70 70 68 67 66 67 67 67 67 68 70 71 73 75 75 76 77 79 81 81 78 75 74 75 77 80 82 84 87 90 94 96 97 98 101 103 106 108 109 112 113 114 113 114 115 111 103 94 90 89 90 91 89 85 79 72 65 58 53 49 44 40 38 36 34 32 30 28 28 27 27 27 28 30 32 33 34 34 33 35 37 40 47 54 59
70 69 68 68 69 68 67 67 70 71 70 69 71 72 73 74 75 75 76 74 71 69 69 69 70 76 81 86 89 92 95 97 99 101 103 105 106 109 111 113 113 113 114 114 110 102 94 91 90 91 92 90 87 82 75 67 60 55 50 45 41 38 35 33 31 29 27 26 26 25 25 25 26 29 31 32 31 30 30 32 34 37 43 51 55
71 70 70 71 70 67 67 69 68 63 60 62 67 70 72 74 73 72 71 72 73 75 75 72 72 78 84 88 92 94 96 98 99 100 102 105 108 111 112 112 112 113 111 106 98 92 91 91 92 93 91 89 84 77 69 62 57 52 47 42 39 35 33 31 29 27 25 25 24 24 24 24 25 28 30 30 29 28 28 29 31 34 40 47 51
72 72 72 72 69 66 67 65 58 53 58 66 71 72 72 72 73 73 74 76 78 80 79 77 77 81 85 88 91 94 95 96 98 101 105 108 109 110 110 110 110 107 100 93 89 90 92 93 94 93 90 86 79 71 63 58 53 48 43 40 36 33 30 28 27 25 25 24 24 23 23 23 24 27 28 27 26 27 26 27 30 33 36 42 47
73 73 72 70 67 64 63 60 57 60 66 71 72 71 70 68 68 70 72 75 77 79 79 80 81 84 86 88 90 92 95 99 103 105 106 106 106 107 108 107 102 95 89 88 90 92 94 94 94 92 88 82 74 65 58 54 50 45 40 37 34 31 28 26 25 25 25 24 24 23 22 21 23 25 25 25 24 25 26 27 29 31 34 39 44
75 74 70 66 62 60 58 57 59 62 64 65 67 70 71 71 71 73 75 77 79 80 82 85 87 88 89 91 94 97 101 103 104 104 104 105 106 106 104 98 91 88 89 91 92 93 94 94 93 89 85 78 68 60 55 51 46 41 37 34 32 29 26 25 25 25 25 25 24 23 21 20 21 22 23 22 23 24 25 26 27 29 32 36 40
76 69 60 55 54 53 51 53 57 60 63 66 69 72 74 77 80 81 82 84 86 89 91 92 93 94 96 97 99 100 101 101 102 103 104 103 102 98 93 88 87 89 91 92 92 94 94 93 91 88 82 72 62 56 52 48 43 38 35 32 30 27 25 24 26 27 26 26 25 23 21 20 20 20 20 20 20 21 22 23 24 26 30 33 37
72 59 49 49 54 56 57 61 65 68 70 73 74 76 78 81 84 87 89 92 93 94 95 96 96 97 97 98 99 100 100 101 101 99 96 94 91 89 87 87 89 91 92 93 94 94 94 92 89 84 76 66 58 52 48 44 40 36 32 30 29 26 24 25 28 29 27 26 24 23 21 19 18 18 17 16 17 18 19 20 21 23 27 31 35
62 57 54 57 61 64 66 70 74 76 78 78 78 80 83 86 89 92 93 93 93 93 93 93 94 95 96 98 99 98 97 95 92 88 86 85 85 85 86 88 90 92 93 94 94 93 92 89 84 78 70 61 54 49 45 41 37 34 31 30 28 26 25 27 31 30 27 25 24 22 20 17 15 16 16 15 16 16 17 17 19 21 25 29 33
66 67 67 68 69 69 70 73 75 77 79 80 82 85 88 91 92 91 90 89 89 89 90 92 94 95 97 96 94 90 88 86 86 86 86 85 86 86 88 89 90 91 91 92 92 90 87 84 79 73 64 57 51 46 41 37 34 32 30 29 28 26 26 30 33 31 28 26 24 22 21 18 15 15 16 15 14 14 14 15 16 18 23 28 32
77 77 78 78 77 77 77 78 78 80 83 86 88 89 89 88 87 86 87 87 88 90 91 93 93 93 92 90 87 86 86 87 88 88 88 87 86 87 87 88 89 90 90 90 89 87 83 78 73 66 59 53 48 43 38 34 32 31 30 29 28 27 28 33 36 33 29 27 25 24 22 19 16 16 17 17 14 12 13 15 15 15 20 26 31
82 83 83 82 81 81 81 82 84 86 88 88 87 86 85 85 85 86 87 88 89 89 89 89 88 88 88 88 89 89 90 91 91 90 88 86 85 86 87 88 88 90 91 90 87 82 78 73 67 60 54 50 45 39 36 33 31 30 30 30 28 28 31 36 38 35 31 29 27 25 23 21 18 17 19 19 16 13 15 16 14 14 17 23 29
85 84 83 83 83 84 85 87 88 89 88 87 86 84 84 85 86 86 86 85 84 83 84 86 88 89 90 91 92 93 93 92 91 89 86 85 86 88 89 89 90 93 92 88 82 77 72 66 60 55 51 47 42 37 34 32 30 29 30 30 29 29 33 39 41 38 33 31 30 27 25 23 20 18 20 22 19 16 16 16 14 15 18 21 26
84 84 84 85 86 88 89 91 90 88 85 83 82 81 81 82 81 80 79 80 81 82 86 89 91 92 93 93 94 94 94 92 90 89 88 89 91 92 91 92 94 93 89 82 76 71 65 59 55 51 47 43 39 36 33 31 29 28 30 31 30 31 36 42 43 40 36 33 32 29 27 26 23 20 22 25 24 22 20 19 17 18 21 22 23
85 86 88 90 91 92 92 91 88 84 82 80 80 81 82 81 79 78 79 82 84 85 88 91 93 93 93 93 92 92 91 91 91 92 93 93 94 94 93 93 92 88 81 74 68 63 58 54 51 48 43 39 37 35 32 30 29 28 29 31 32 33 37 43 46 42 37 35 34 32 29 28 27 23 24 28 29 28 26 23 21 21 24 26 25
90 92 93 94 93 92 89 87 84 83 82 82 83 83 81 79 79 80 83 86 87 88 89 92 93 92 92 91 91 91 91 91 92 93 93 94 94 93 90 88 83 77 71 66 61 57 54 51 48 45 41 36 34 33 32 30 29 28 29 31 33 34 39 45 48 45 40 37 37 35 32 30 30 27 27 31 34 34 32 29 27 25 26 28 29
91 90 90 89 87 85 85 84 84 83 83 82 82 81 81 81 83 83 85 88 90 90 90 90 91 92 92 92 90 90 89 89 90 91 92 92 89 84 80 76 72 67 62 59 56 53 51 49 46 43 39 36 33 32 31 31 30 29 29 31 34 36 40 46 50 48 43 40 39 38 35 33 32 30 29 32 37 39 37 35 33 31 29 29 31
90 87 85 83 83 84 84 83 83 82 82 82 82 83 84 84 83 84 87 90 91 90 90 91 91 91 90 89 88 87 87 87 87 88 87 84 79 75 70 66 62 59 56 54 52 51 49 46 43 40 38 36 34 33 32 31 31 30 30 31 34 37 40 47 52 52 47 43 41 41 39 36 35 33 31 33 39 42 41 40 38 37 35 34 34
91 88 87 86 85 85 84 83 83 84 83 83 84 85 85 84 84 85 87 88 89 89 89 88 87 86 85 84 84 84 83 82 82 81 79 75 71 67 63 59 56 54 53 51 50 49 46 43 41 39 38 37 36 34 33 32 31 31 31 32 34 37 41 47 53 55 52 47 44 43 42 40 38 37 34 34 39 44 45 43 42 41 41 41 39
89 88 87 86 85 84 84 85 86 86 85 85 86 86 85 86 87 87 87 86 86 85 84 83 82 81 80 79 79 79 78 77 75 73 70 67 64 61 58 55 53 51 50 49 47 45 43 41 39 39 38 38 37 36 34 32 31 32 32 32 34 37 41 47 54 57 56 52 47 45 45 43 41 40 38 36 38 44 47 46 45 45 46 46 45
85 85 85 85 84 84 86 87 88 88 88 87 87 86 87 88 88 87 86 85 82 80 79 79 78 77 76 75 75 74 72 71 69 67 65 62 59 57 55 52 50 48 47 45 44 42 41 40 40 39 38 37 36 34 33 32 31 31 33 33 35 37 40 46 54 59 60 56 51 48 47 46 45 43 41 39 39 42 46 49 49 48 49 50 50
83 84 85 85 86 87 88 89 89 89 89 88 88 89 91 90 88 86 84 82 79 78 77 76 76 75 74 72 70 69 68 67 66 63 60 58 56 55 53 50 47 45 43 42 41 41 40 40 39 37 36 34 33 32 31 30 29 30 32 34 35 37 40 45 53 60 63 60 56 52 50 49 48 47 44 42 41 42 45 50 52 52 52 53 54
85 87 88 88 89 89 89 89 89 90 89 90 90 91 90 88 86 83 81 79 78 77 76 75 75 74 72 69 67 66 65 63 60 57 55 53 52 51 49 46 44 43 41 40 40 39 38 37 36 34 32 31 30 28 28 28 27 28 30 33 35 38 40 44 50 59 64 64 61 56 53 52 51 50 48 46 44 43 45 49 53 56 56 56 58
89 89 90 90 90 90 90 90 90 90 90 90 90 88 87 85 83 81 79 77 76 75 74 73 73 72 70 67 65 63 60 57 54 52 49 47 46 46 45 43 41 40 40 39 38 36 34 33 32 30 29 28 26 25 25 25 25 26 28 31 34 37 40 42 48 56 64 67 65 61 57 55 54 53 52 49 47 46 47 49 53 58 60 59 60
92 92 91 91 92 92 92 91 91 90 89 88 87 86 84 83 81 78 76 75 73 72 71 70 69 68 66 63 60 58 55 52 49 46 44 43 42 42 41 40 39 38 37 36 35 33 31 29 28 27 25 24 23 23 22 22 23 23 25 27 31 35 39 42 45 52 61 68 69 66 62 59 57 56 55 53 51 49 49 49 52 58 62 62 62
95 94 93 93 92 92 91 90 89 88 87 86 86 84 82 80 77 75 73 71 70 68 67 65 63 62 60 58 55 53 51 48 45 42 41 40 39 38 37 37 36 35 34 33 31 29 27 27 26 25 23 22 22 21 20 20 20 21 22 24 27 31 36 40 43 48 56 65 70 70 67 63 60 59 58 56 54 52 52 51 52 57 63 66 65
97 95 93 91 90 89 89 88 87 87 86 86 84 81 78 75 73 71 70 68 66 64 62 59 57 56 54 52 49 48 46 44 41 39 38 37 36 35 34 33 33 32 32 30 28 26 25 26 26 24 22 21 21 20 20 20 20 20 21 22 24 27 32 37 41 45 50 59 68 72 71 68 65 62 61 59 58 56 55 54 54 56 61 66 68
94 92 91 89 89 88 88 87 87 87 86 84 80 76 73 71 70 69 66 63 60 57 55 53 52 51 49 47 44 43 42 40 37 36 36 36 35 33 32 32 31 31 29 28 26 25 25 26 26 24 22 21 20 20 19 19 20 20 21 22 23 24 27 32 37 42 46 53 62 71 74 73 70 67 64 62 61 60 59 58 57 57 58 62 66
91 91 90 89 89 88 88 87 87 85 82 78 73 71 70 69 69 66 62 58 54 51 49 48 48 47 45 43 41 40 39 37 35 33 34 34 33 32 31 31 31 30 29 27 25 25 26 27 27 25 22 21 20 20 20 20 20 20 21 22 23 24 25 27 32 37 42 47 55 65 73 76 74 71 69 66 64 63 62 61 60 60 60 60 63
Wind_Direction
310 312 314 315 316 316 315 315 315 315 314 312 312 312 308 307 309 311 315 320 322 323 322 320 319 319 319 320 319 315 312 311 311 313 315 315 316 316 316 320 322 324 326 327 328 329 330 330 329 329 329 331 334 331 322 310 301 292 284 279 275 272 268 265 263 262 262 259 257 255 252 248 247 245 241 238 236 235 235 234 232 232 233 233 232
309 312 314 315 316 316 315 314 313 312 312 311 310 309 307 306 307 309 312 315 319 322 321 318 317 317 316 317 316 313 311 309 309 311 312 312 313 314 315 319 321 323 324 326 326 327 328 328 327 327 327 329 332 330 322 312 306 298 289 282 277 274 270 267 265 263 263 262 259 256 255 252 248 246 243 240 237 235 234 234 234 232 232 232 233
308 311 313 315 317 317 316 312 309 309 309 309 310 309 307 305 305 306 310 313 316 319 319 317 315 314 313 312 311 309 308 307 308 308 309 311 312 312 315 318 320 322 323 324 325 325 325 326 326 325 325 328 330 329 321 314 309 303 295 286 280 277 273 269 266 264 263 264 262 259 256 254 251 248 245 242 239 236 234 233 234 233 232 231 232
306 310 314 317 319 320 316 306 298 299 301 302 307 308 305 302 302 304 308 310 312 316 317 315 314 312 309 309 308 307 306 307 308 307 308 310 311 312 315 318 319 321 322 323 323 323 323 324 324 324 324 326 329 328 320 315 312 306 300 292 284 279 275 271 267 264 264 264 264 262 258 256 253 251 247 244 240 237 235 233 233 233 233 231 231
306 311 316 320 321 319 314 302 292 292 296 299 304 305 303 303 304 305 307 308 310 314 314 312 311 310 308 307 306 306 306 307 307 307 308 310 311 312 315 316 318 320 321 321 321 321 322 323 322 322 323 324 327 326 320 317 314 308 302 296 287 280 275 272 268 265 263 263 264 264 261 258 255 252 249 246 243 239 236 234 232 232 233 233 231
308 314 318 322 323 315 305 302 300 297 298 301 305 306 307 308 306 306 307 308 311 313 312 310 309 308 306 305 304 304 305 306 306 307 308 309 310 312 313 315 317 318 319 319 319 320 321 321 321 321 321 323 325 324 320 318 315 310 305 298 290 282 275 271 268 265 263 261 262 263 263 260 256 254 251 248 245 241 237 234 233 232 232 232 232
310 314 316 320 323 308 293 298 303 300 298 301 305 306 307 307 306 307 308 309 311 311 309 308 307 305 304 303 303 304 305 305 306 307 308 309 309 310 312 314 316 317 317 317 317 319 320 320 319 319 319 321 323 322 319 318 316 312 307 301 294 286 277 271 267 264 263 261 260 260 261 261 258 255 253 249 246 243 240 235 233 232 231 231 232
309 311 311 316 320 308 294 295 299 297 294 296 301 302 302 302 304 306 308 308 308 308 306 305 303 302 302 302 302 304 305 306 307 307 307 306 307 309 312 314 315 315 315 315 316 318 319 318 318 318 318 320 322 322 320 318 317 313 308 303 297 289 281 273 267 263 262 260 259 258 258 259 259 256 254 251 248 245 242 238 233 232 231 231 231
304 304 305 309 314 312 302 294 292 291 289 290 294 295 296 298 300 302 303 304 304 303 302 301 298 298 300 301 301 302 304 305 306 304 303 303 305 309 311 312 313 313 313 314 316 317 317 317 316 316 317 320 322 321 320 318 316 313 310 305 299 293 285 276 269 264 261 259 258 257 256 256 257 256 254 252 249 246 244 241 236 233 231 229 230
298 298 301 302 303 305 302 289 282 282 284 287 291 291 291 293 295 295 296 298 299 298 296 295 294 295 299 300 300 301 302 303 301 299 299 301 305 308 310 311 312 312 313 314 316 316 316 315 315 314 316 319 321 320 319 318 316 314 311 307 302 295 288 280 273 267 262 259 258 257 255 254 254 254 253 252 250 247 245 243 240 236 232 229 228
294 293 297 299 297 297 293 282 276 276 280 285 287 286 287 289 290 290 292 294 295 294 292 291 292 296 298 298 299 300 299 298 297 297 299 301 305 307 309 310 311 312 313 315 315 315 314 314 313 314 316 319 320 319 318 317 315 314 311 308 303 297 290 284 277 270 265 261 258 257 255 254 253 252 251 251 250 248 245 243 241 238 235 231 228
291 290 293 295 294 291 284 277 277 279 280 281 281 281 283 285 286 287 289 290 291 290 289 290 293 296 296 296 297 296 295 294 295 296 299 301 304 307 308 309 310 312 314 314 314 313 312 312 313 314 316 319 319 318 317 316 315 314 312 309 304 299 293 287 281 274 268 263 259 257 255 254 253 252 250 249 249 248 245 242 240 239 237 235 231
288 288 289 290 290 287 282 279 281 280 278 280 282 281 281 283 284 285 286 287 287 286 286 289 293 294 292 292 292 292 291 292 293 295 298 302 304 306 307 309 311 313 313 313 311 311 311 311 313 314 316 318 318 317 316 316 315 314 313 310 305 300 296 292 285 278 272 267 262 259 256 254 252 251 250 247 246 247 246 242 239 237 236 236 234
286 286 286 287 286 284 282 281 281 279 277 280 281 279 279 281 283 283 284 284 284 283 284 287 289 288 287 288 288 289 290 292 294 297 300 302 304 305 307 310 312 313 312 311 310 311 311 312 313 313 315 317 317 316 316 317 316 316 314 311 307 302 299 294 287 281 275 271 267 264 260 256 254 252 251 248 245 244 244 242 239 236 235 234 234
284 282 283 285 283 280 279 280 281 280 279 278 276 274 275 278 280 281 282 282 281 280 281 283 284 285 286 287 288 289 292 294 297 299 300 302 304 306 308 311 312 311 310 310 310 310 311 312 312 313 315 316 315 314 316 317 317 316 315 312 308 304 300 295 289 283 279 275 271 268 264 260 258 255 253 249 246 244 242 240 239 236 234 233 232
281 280 281 283 284 282 279 277 279 280 279 278 278 276 276 277 279 280 279 279 278 279 279 281 283 285 287 288 290 292 294 296 298 299 300 302 303 305 308 310 310 310 310 310 310 310 311 311 311 312 314 314 313 314 316 316 316 316 314 311 307 304 300 295 290 285 281 278 274 270 267 265 262 259 256 252 247 245 241 238 238 236 233 232 230
280 280 281 281 281 280 277 274 276 278 278 278 279 279 279 280 280 279 278 277 277 279 281 283 285 287 289 291 293 295 296 297 298 299 300 301 302 304 306 308 309 309 309 310 310 310 310 310 311 312 313 312 313 315 316 315 315 315 314 311 307 303 299 296 292 287 284 281 277 273 270 267 264 261 259 255 249 245 241 237 236 235 233 231 229
281 281 279 276 273 274 274 275 276 274 273 275 277 278 279 280 280 281 282 281 280 282 285 287 289 290 293 295 296 297 297 296 297 297 298 299 299 301 304 306 307 308 309 309 309 309 309 309 310 311 311 311 313 315 316 315 315 315 313 310 306 302 299 295 292 288 285 282 279 276 272 269 265 262 260 257 252 246 241 236 234 234 232 230 228
281 280 278 276 274 275 277 278 277 274 273 275 276 277 278 278 278 281 283 283 284 287 289 290 292 293 295 296 296 295 295 295 295 296 297 298 298 301 303 305 306 307 308 309 308 308 307 308 309 310 310 312 315 316 316 316 315 314 313 310 305 301 298 294 291 289 286 283 280 277 273 269 266 263 261 258 254 247 241 236 233 232 231 229 227
281 280 280 280 280 281 281 280 277 274 274 274 275 276 278 278 279 281 282 283 284 286 287 289 290 291 293 293 293 293 294 294 295 297 298 299 300 301 303 304 305 307 307 307 307 307 307 308 309 309 311 314 316 317 317 316 315 314 312 308 304 299 296 293 291 288 286 283 279 274 271 268 265 263 261 259 255 248 241 236 232 231 230 228 226
283 283 284 285 286 286 285 284 281 278 277 277 277 278 278 279 280 282 282 283 283 283 284 286 287 288 290 291 292 292 293 294 295 297 298 299 300 301 302 303 304 306 306 305 305 306 307 308 308 309 312 315 317 318 317 316 315 314 311 307 302 298 294 291 288 286 284 280 276 271 268 265 263 261 260 258 256 250 243 237 232 230 230 228 225
287 288 289 290 290 289 288 286 285 283 281 280 280 280 280 281 282 283 283 284 283 283 283 284 285 287 288 288 289 290 291 292 294 295 297 298 299 300 301 302 303 304 304 304 305 306 307 307 308 311 314 317 318 318 317 315 314 313 310 305 301 296 292 289 286 283 280 275 271 268 265 264 263 261 259 257 256 254 247 241 235 232 231 229 225
291 291 292 293 292 292 291 289 287 286 284 283 283 283 282 283 283 284 284 283 283 285 285 285 286 286 284 284 285 288 290 292 294 295 296 297 297 298 299 301 302 303 303 304 305 306 306 308 310 313 316 318 319 318 317 315 313 311 308 303 298 294 290 286 283 281 275 269 265 263 262 262 263 264 263 261 259 257 252 246 239 233 231 229 224
293 295 296 296 295 295 295 293 292 291 287 284 283 283 283 284 284 285 283 282 284 288 289 288 288 286 284 284 286 288 289 291 293 293 294 295 295 297 298 300 301 301 302 304 305 305 306 309 312 315 317 319 319 318 316 313 311 309 306 301 296 292 288 284 280 275 268 261 258 257 258 260 262 264 266 265 263 261 255 248 242 235 231 229 225
297 298 298 298 299 299 299 298 296 292 285 282 283 283 284 285 285 284 283 282 285 289 290 288 287 285 285 286 287 288 289 290 291 292 293 294 295 297 298 298 300 302 303 304 304 306 308 311 314 316 318 319 319 317 314 311 309 307 303 298 293 289 285 280 275 267 258 253 252 253 256 259 263 265 267 267 266 263 256 249 243 236 231 228 225
298 298 299 299 300 300 300 297 291 282 279 281 284 284 284 284 284 283 282 282 284 287 289 289 288 287 286 286 286 287 288 289 291 292 293 294 295 296 297 298 301 303 303 304 305 308 310 313 315 317 319 319 319 316 312 309 307 304 300 295 290 285 280 275 268 257 248 246 247 250 255 259 262 265 268 269 267 263 256 248 242 236 230 226 222
296 297 298 300 300 297 294 290 285 281 282 284 285 286 287 287 285 284 284 284 285 286 287 288 288 288 288 287 286 287 288 290 291 292 293 294 295 296 298 300 302 303 303 305 307 309 311 313 316 317 319 319 317 313 309 306 304 300 296 292 286 281 275 268 257 245 240 240 242 246 251 256 260 264 267 268 266 262 255 246 239 234 229 223 219
295 297 299 299 297 293 289 286 286 288 289 290 291 293 294 293 291 291 290 290 290 290 289 289 289 289 288 287 287 288 290 291 292 292 293 295 296 298 300 301 302 302 304 307 308 310 312 314 316 317 318 318 315 311 307 304 301 297 293 288 282 275 269 259 244 234 233 235 238 241 244 250 256 261 265 266 264 260 255 247 238 233 227 221 216
295 297 297 294 292 290 288 287 288 289 289 290 291 291 291 292 294 294 294 293 293 292 291 291 290 290 289 289 290 291 291 292 293 294 295 296 298 299 300 301 301 303 305 308 310 311 313 314 315 316 317 315 312 309 306 302 298 294 289 283 276 270 262 248 233 226 228 232 235 237 239 243 251 258 261 262 260 255 250 244 236 231 225 218 211
293 290 284 281 282 282 282 283 285 285 285 285 286 286 287 289 290 291 292 291 291 291 291 291 291 291 291 291 291 292 292 294 295 296 297 299 299 300 300 301 302 304 307 309 311 312 312 313 314 315 315 313 310 307 304 300 296 291 285 277 270 263 254 237 223 220 225 229 233 235 235 237 246 253 252 252 251 249 243 236 230 226 221 215 208
287 282 278 278 279 278 277 278 280 280 281 281 282 283 285 286 288 289 290 290 290 290 291 291 291 291 290 291 292 293 295 296 296 298 299 300 300 301 301 302 304 306 308 310 311 311 311 312 313 313 313 311 308 305 302 298 293 288 280 271 263 256 244 228 217 217 221 226 230 232 231 230 238 245 243 239 242 245 237 225 220 219 217 212 206
282 283 282 283 282 279 277 276 276 277 278 279 281 284 286 288 289 289 289 290 290 290 290 290 290 291 291 293 294 296 297 297 298 299 300 301 302 303 303 305 306 308 309 310 310 310 310 311 311 311 310 308 306 304 300 295 289 283 275 266 257 248 234 220 214 214 218 222 225 227 227 225 226 236 237 230 231 238 228 210 206 210 210 208 204
284 286 286 287 286 284 282 282 282 282 284 285 287 288 289 289 289 289 289 290 290 291 291 292 292 293 293 295 296 298 298 299 299 300 301 302 303 304 305 307 308 309 309 309 309 309 309 309 309 309 308 307 305 301 297 292 285 277 269 260 252 242 227 216 211 211 215 219 220 221 224 221 218 228 231 219 215 225 219 199 192 197 201 202 200
286 287 288 288 287 287 287 287 287 289 290 290 290 290 290 290 290 290 291 292 292 293 293 294 294 295 296 297 299 299 300 300 300 301 302 303 305 306 307 307 308 308 308 308 308 307 307 308 307 306 306 305 303 299 295 290 282 272 264 256 247 236 222 213 210 210 213 217 216 216 219 218 215 223 224 211 202 211 212 197 186 184 188 192 193
285 285 286 286 286 286 287 288 290 292 292 292 291 291 291 292 292 293 293 294 295 296 296 296 296 297 298 299 300 300 300 301 301 302 303 306 307 307 307 307 308 307 307 306 306 306 306 306 305 304 304 303 300 296 292 287 279 269 261 253 243 231 218 211 209 209 211 214 214 212 214 215 214 216 216 205 194 192 196 193 188 179 173 177 185
284 285 285 286 287 288 290 292 293 294 293 292 292 292 293 294 294 294 294 295 297 297 296 296 297 298 299 299 300 300 301 302 304 305 307 307 307 306 306 306 306 305 304 304 304 304 304 303 303 303 303 301 298 293 290 284 277 267 258 250 242 229 217 210 208 208 210 213 213 210 209 213 214 210 206 201 190 181 181 187 192 183 168 165 176
285 286 287 289 290 291 293 294 294 294 293 292 292 293 294 295 294 295 295 296 296 296 295 296 297 298 298 299 300 301 303 304 305 305 305 304 303 303 304 304 304 302 302 302 302 303 302 301 301 301 300 298 294 290 288 283 274 264 255 248 240 229 217 210 208 208 209 212 213 209 207 211 214 209 202 197 189 180 178 186 196 190 173 165 170
288 289 290 291 292 293 293 294 294 293 292 292 293 293 294 294 295 296 296 296 295 295 296 297 298 298 299 300 301 302 302 302 302 301 300 299 300 301 302 302 301 300 300 301 302 302 301 300 300 300 298 295 290 287 285 281 273 263 253 245 239 230 219 210 207 207 208 211 213 209 206 209 214 210 202 196 191 183 179 184 194 193 181 173 172
291 291 291 291 291 292 292 292 292 291 291 291 292 292 293 294 296 297 297 296 296 297 298 298 298 298 299 300 300 299 299 299 298 298 298 299 300 301 301 299 299 299 300 301 302 301 301 300 299 298 296 293 288 285 283 279 272 263 253 243 238 231 221 211 207 207 207 210 212 210 205 207 213 213 205 198 194 189 184 185 191 192 186 183 180
290 290 290 289 290 290 290 290 289 290 290 291 292 293 294 296 297 298 298 298 299 299 299 298 298 298 298 298 298 298 298 298 298 299 299 300 300 300 299 298 299 300 301 301 301 300 300 299 298 296 293 290 288 284 280 275 270 263 253 243 237 232 223 214 208 207 207 209 212 211 207 205 210 214 209 201 197 194 189 189 192 191 187 187 185
288 288 288 288 289 289 289 289 289 290 291 293 294 295 297 298 299 299 298 298 299 299 299 298 297 297 297 297 297 297 298 298 299 299 299 299 300 299 299 299 301 302 302 301 300 299 299 298 296 294 291 289 287 284 279 273 267 261 254 245 237 231 225 216 210 207 207 208 210 212 210 206 207 212 212 205 200 198 194 193 194 191 188 189 188
286 286 286 287 288 288 288 289 291 292 293 295 296 297 298 299 300 299 299 299 300 299 298 297 297 296 296 297 297 298 299 300 300 299 299 299 300 300 300 301 302 302 301 300 299 299 298 296 295 293 291 288 286 283 278 272 265 259 254 247 238 232 226 219 212 208 208 208 209 211 212 209 207 210 212 209 204 201 198 196 195 193 191 191 189
284 285 286 287 288 288 289 291 292 294 296 297 298 298 299 300 300 300 301 301 301 299 298 298 298 298 298 298 298 299 299 300 299 299 299 300 300 300 300 301 301 301 300 299 298 298 297 295 294 292 290 288 285 281 277 271 264 257 252 247 240 233 227 221 215 210 208 208 208 210 212 211 208 209 211 210 208 205 201 198 197 195 194 192 189
284 285 286 287 288 289 291 292 294 296 297 298 298 298 300 300 300 301 302 302 301 300 300 300 299 299 299 299 299 299 299 299 299 299 299 300 300 300 300 301 301 300 299 298 297 296 295 295 293 292 290 287 284 280 276 271 264 256 250 247 242 235 229 224 218 213 210 209 208 208 211 213 211 209 210 210 209 207 204 201 199 198 196 193 190
285 286 287 288 289 291 292 293 295 296 297 297 297 298 299 300 301 303 303 302 301 301 301 301 301 301 301 300 299 299 299 299 299 299 299 299 298 298 299 299 299 299 298 297 296 296 295 294 293 291 289 286 282 279 274 269 263 257 250 245 242 237 231 226 221 216 212 210 209 208 210 212 213 212 210 210 210 209 207 204 202 200 198 196 192
285 286 287 289 290 292 293 293 294 295 295 296 297 298 299 301 303 303 303 302 301 301 301 301 301 301 300 300 300 299 299 299 299 299 299 299 297 297 297 298 298 298 297 296 296 296 295 293 291 289 286 283 279 276 272 266 262 257 250 245 241 239 234 229 224 219 215 212 210 209 208 211 214 214 212 210 210 211 209 207 204 202 200 198 195
287 288 289 290 291 292 292 292 293 294 295 297 298 300 302 303 303 302 301 300 300 301 301 301 301 300 300 300 300 300 299 300 300 300 299 297 296 296 296 296 297 297 296 295 296 295 294 291 288 285 282 280 277 274 272 268 264 260 255 248 243 240 236 232 227 223 218 214 212 210 209 209 212 215 215 213 211 211 211 210 207 204 202 200 199
289 289 290 290 291 291 292 293 294 296 297 298 300 302 303 302 300 299 299 300 301 301 301 301 300 299 299 300 301 301 301 301 301 301 299 297 296 295 296 296 296 295 295 294 294 293 290 287 284 280 279 278 277 275 274 273 271 267 263 256 249 243 239 235 231 227 222 218 215 213 211 210 211 214 216 215 213 212 212 211 210 207 205 203 201
290 290 291 291 292 292 293 295 296 297 297 299 301 302 301 299 298 299 300 301 302 302 301 300 299 299 299 300 301 301 301 301 302 302 299 297 296 296 295 294 294 293 293 293 292 290 286 282 280 279 278 278 278 276 276 276 274 271 268 264 257 250 245 239 235 231 227 222 218 216 214 212 211 212 214 216 216 214 213 212 211 210 209 207 205
288 289 290 290 291 291 293 294 295 296 298 300 301 300 299 298 298 300 301 301 301 300 299 298 298 297 298 299 300 300 300 300 301 300 298 297 296 296 295 294 293 292 292 291 289 286 283 280 278 279 279 278 278 279 278 277 276 274 271 268 263 257 251 245 240 235 231 227 222 219 217 215 213 212 213 215 217 216 215 214 213 211 211 211 210
284 285 286 287 288 290 292 293 295 297 299 300 299 298 297 298 299 300 300 300 300 299 298 298 297 297 298 299 299 298 298 298 299 298 297 296 296 295 294 294 292 291 290 289 286 283 280 278 277 278 278 278 278 279 278 276 275 275 272 270 267 262 256 250 245 240 236 231 226 223 220 218 216 214 213 214 216 217 217 216 214 213 213 213 213
Height
10916 10914 10911 10909 10906 10902 10897 10892 10888 10886 10884 10883 10881 10879 10877 10875 10873 10871 10870 10867 10865 10864 10862 10859 10856 10854 10851 10848 10846 10842 10839 10836 10832 10829 10826 10823 10820 10817 10813 10810 10806 10802 10797 10793 10788 10784 10780 10777 10775 10774 10771 10768 10765 10763 10760 10757 10754 10750 10748 10745 10743 10742 10740 10737 10735 10729 10723 10724 10729 10732 10736 10742 10744 10747 10752 10756 10760 10766 10770 10773 10778 10782 10786 10790 10794
10912 10910 10908 10904 10900 10896 10891 10886 10883 10880 10879 10877 10876 10873 10871 10868 10866 10865 10863 10861 10859 10858 10856 10854 10851 10848 10845 10842 10839 10837 10834 10830 10827 10824 10821 10818 10815 10811 10806 10802 10798 10795 10790 10786 10782 10778 10774 10771 10768 10766 10763 10760 10756 10753 10751 10748 10746 10742 10738 10737 10734 10733 10733 10731 10728 10724 10717 10712 10717 10722 10725 10730 10734 10736 10741 10745 10750 10756 10760 10763 10767 10772 10776 10780 10784
10910 10908 10905 10901 10897 10891 10885 10880 10878 10877 10875 10873 10871 10868 10864 10861 10859 10858 10857 10855 10853 10851 10849 10847 10845 10842 10839 10836 10833 10830 10827 10824 10821 10819 10816 10812 10808 10804 10800 10795 10791 10787 10783 10779 10776 10772 10768 10765 10762 10759 10756 10752 10748 10744 10741 10739 10736 10733 10729 10727 10726 10724 10724 10723 10719 10717 10712 10704 10704 10711 10715 10718 10722 10726 10730 10734 10739 10744 10749 10753 10757 10761 10766 10770 10775
10907 10905 10902 10898 10894 10888 10882 10875 10871 10872 10871 10869 10866 10862 10859 10855 10853 10852 10851 10850 10847 10844 10842 10840 10838 10835 10833 10830 10826 10823 10820 10817 10815 10812 10808 10804 10800 10796 10791 10787 10783 10779 10775 10772 10769 10765 10762 10758 10755 10752 10749 10745 10741 10736 10733 10730 10726 10723 10719 10718 10717 10715 10714 10713 10711 10708 10706 10699 10694 10698 10705 10708 10710 10714 10718 10723 10727 10732 10738 10742 10746 10751 10755 10759 10764
10904 10902 10900 10897 10891 10884 10878 10872 10866 10865 10866 10863 10861 10858 10854 10851 10848 10845 10844 10843 10841 10838 10836 10834 10832 10829 10826 10823 10819 10816 10813 10810 10808 10804 10800 10795 10791 10787 10783 10780 10776 10772 10768 10765 10762 10759 10756 10752 10749 10745 10742 10738 10734 10730 10726 10722 10717 10712 10709 10707 10706 10705 10703 10702 10701 10700 10697 10693 10687 10686 10691 10696 10698 10700 10705 10711 10715 10720 10726 10732 10736 10740 10744 10748 10754
10900 10899 10898 10895 10891 10883 10874 10868 10863 10860 10859 10858 10856 10853 10849 10846 10843 10840 10838 10836 10833 10831 10829 10827 10825 10822 10819 10816 10813 10809 10806 10804 10801 10797 10793 10788 10784 10780 10776 10773 10769 10765 10761 10758 10756 10753 10749 10746 10742 10738 10734 10730 10727 10723 10718 10713 10707 10701 10698 10697 10695 10694 10693 10691 10690 10689 10687 10685 10681 10677 10678 10683 10686 10687 10692 10699 10704 10708 10714 10720 10724 10728 10733 10738 10743
10896 10895 10893 10892 10891 10884 10874 10868 10864 10857 10853 10854 10853 10849 10845 10840 10837 10834 10832 10830 10827 10825 10823 10821 10818 10815 10813 10809 10806 10803 10800 10797 10794 10791 10787 10783 10779 10775 10771 10767 10762 10758 10755 10752 10749 10746 10743 10739 10734 10730 10726 10722 10718 10714 10709 10703 10697 10690 10686 10685 10683 10681 10681 10680 10678 10678 10676 10675 10673 10671 10668 10670 10673 10676 10679 10686 10692 10696 10702 10708 10713 10716 10721 10727 10732
10892 10890 10889 10888 10887 10883 10875 10870 10866 10858 10852 10850 10849 10845 10841 10836 10832 10828 10825 10824 10822 10819 10817 10815 10812 10810 10807 10803 10799 10796 10793 10791 10788 10785 10782 10779 10775 10770 10765 10761 10756 10752 10748 10745 10741 10738 10735 10730 10726 10721 10717 10713 10708 10703 10699 10694 10687 10680 10675 10673 10672 10669 10668 10668 10667 10666 10665 10664 10663 10664 10662 10659 10661 10665 10668 10672 10679 10684 10688 10696 10702 10705 10710 10718 10722
10887 10885 10884 10883 10883 10880 10876 10872 10867 10859 10851 10847 10846 10842 10836 10832 10829 10825 10821 10819 10817 10814 10811 10809 10806 10804 10801 10797 10793 10790 10787 10785 10783 10780 10777 10773 10769 10764 10758 10753 10749 10745 10741 10737 10733 10729 10726 10722 10718 10713 10708 10703 10698 10693 10689 10685 10678 10670 10665 10662 10660 10658 10656 10656 10655 10655 10654 10652 10651 10653 10654 10651 10650 10654 10656 10659 10665 10671 10675 10682 10690 10694 10699 10706 10711
10882 10881 10879 10878 10877 10876 10875 10872 10866 10858 10850 10845 10844 10840 10831 10827 10825 10822 10818 10815 10812 10808 10806 10803 10801 10798 10794 10790 10787 10784 10781 10779 10777 10773 10769 10766 10762 10757 10751 10746 10741 10737 10734 10730 10725 10720 10717 10714 10709 10704 10699 10694 10689 10683 10679 10674 10668 10661 10655 10651 10648 10646 10644 10643 10644 10644 10643 10641 10640 10642 10643 10643 10641 10643 10645 10647 10652 10658 10663 10669 10676 10682 10687 10694 10699
10875 10875 10875 10874 10871 10871 10871 10867 10859 10853 10846 10842 10840 10836 10828 10822 10819 10816 10813 10810 10806 10802 10799 10797 10795 10792 10787 10783 10780 10778 10776 10774 10771 10766 10761 10758 10754 10749 10743 10738 10733 10729 10725 10721 10717 10712 10709 10705 10700 10695 10689 10684 10679 10673 10669 10664 10657 10650 10645 10640 10636 10634 10633 10632 10632 10632 10631 10630 10629 10630 10631 10632 10632 10633 10634 10636 10639 10645 10651 10657 10663 10668 10675 10682 10688
10868 10868 10870 10869 10865 10863 10862 10858 10851 10845 10841 10837 10835 10831 10824 10818 10814 10810 10807 10804 10800 10797 10793 10791 10789 10785 10781 10777 10774 10771 10769 10767 10762 10758 10753 10750 10746 10741 10736 10731 10725 10720 10716 10713 10710 10706 10701 10696 10691 10685 10679 10674 10669 10663 10658 10652 10646 10639 10634 10630 10626 10622 10622 10621 10621 10620 10620 10619 10618 10618 10619 10621 10621 10622 10623 10627 10629 10632 10638 10646 10651 10656 10662 10669 10675
10860 10860 10862 10863 10860 10856 10854 10850 10845 10841 10835 10831 10828 10823 10818 10813 10808 10804 10801 10798 10794 10791 10788 10786 10783 10780 10775 10771 10768 10764 10761 10757 10753 10749 10745 10741 10737 10733 10728 10723 10717 10711 10706 10704 10701 10698 10693 10688 10683 10676 10669 10663 10659 10654 10648 10641 10634 10628 10623 10619 10615 10612 10611 10611 10609 10608 10608 10608 10607 10606 10608 10609 10609 10609 10612 10617 10619 10620 10625 10633 10638 10644 10650 10655 10661
10853 10853 10854 10855 10853 10850 10847 10843 10839 10835 10830 10825 10820 10815 10810 10806 10802 10798 10794 10791 10788 10786 10783 10781 10777 10772 10768 10765 10760 10755 10751 10748 10744 10740 10736 10731 10727 10724 10719 10713 10707 10702 10698 10695 10692 10688 10683 10678 10673 10667 10660 10654 10649 10645 10639 10631 10623 10617 10612 10608 10604 10602 10601 10600 10598 10598 10597 10597 10596 10595 10596 10597 10597 10597 10600 10605 10609 10609 10613 10619 10624 10631 10637 10642 10648
10846 10846 10846 10847 10846 10843 10841 10837 10832 10829 10825 10817 10809 10805 10803 10799 10795 10792 10788 10785 10782 10780 10777 10773 10768 10763 10759 10756 10751 10746 10742 10739 10734 10729 10726 10722 10718 10714 10709 10703 10699 10695 10691 10687 10683 10679 10673 10669 10664 10658 10652 10646 10641 10636 10631 10623 10614 10608 10603 10598 10594 10592 10591 10589 10588 10588 10587 10587 10586 10585 10585 10585 10586 10586 10587 10592 10596 10598 10603 10607 10609 10616 10624 10628 10635
10838 10838 10839 10841 10840 10836 10835 10833 10829 10824 10818 10808 10799 10796 10795 10792 10788 10786 10782 10778 10776 10773 10769 10764 10759 10753 10748 10745 10741 10737 10733 10729 10724 10720 10717 10713 10709 10704 10699 10695 10692 10688 10684 10680 10675 10670 10665 10660 10655 10649 10643 10638 10633 10628 10622 10615 10607 10600 10594 10588 10584 10581 10580 10579 10579 10578 10577 10577 10576 10575 10575 10575 10575 10575 10576 10580 10584 10586 10592 10595 10596 10602 10609 10614 10621
10829 10829 10831 10834 10831 10826 10825 10826 10825 10819 10808 10798 10792 10788 10786 10783 10781 10778 10775 10772 10769 10765 10760 10756 10751 10744 10739 10735 10732 10727 10722 10718 10714 10711 10708 10704 10700 10696 10692 10689 10685 10681 10676 10671 10666 10661 10656 10651 10646 10640 10634 10630 10624 10618 10612 10605 10598 10592 10585 10579 10575 10572 10571 10570 10569 10569 10568 10568 10567 10566 10566 10566 10566 10565 10565 10568 10573 10575 10580 10584 10584 10588 10595 10601 10608
10819 10819 10822 10825 10821 10816 10815 10816 10816 10810 10798 10789 10785 10782 10778 10775 10772 10769 10767 10764 10760 10756 10752 10747 10742 10735 10730 10725 10721 10716 10712 10708 10705 10703 10701 10698 10694 10689 10685 10682 10677 10672 10667 10662 10657 10652 10647 10642 10637 10631 10625 10620 10614 10608 10601 10595 10588 10583 10577 10571 10566 10563 10562 10561 10560 10559 10559 10559 10558 10557 10558 10558 10558 10557 10557 10559 10563 10566 10569 10572 10574 10576 10582 10589 10595
10809 10808 10810 10812 10810 10807 10806 10805 10803 10796 10787 10781 10778 10775 10771 10768 10764 10761 10759 10755 10751 10747 10743 10738 10732 10725 10721 10716 10711 10706 10702 10699 10697 10696 10695 10691 10686 10681 10677 10672 10667 10662 10657 10653 10647 10643 10638 10633 10628 10622 10617 10611 10604 10597 10590 10583 10578 10573 10568 10563 10559 10556 10554 10553 10552 10551 10551 10551 10551 10550 10550 10550 10550 10550 10550 10551 10554 10557 10560 10562 10564 10567 10572 10578 10584
10800 10799 10799 10799 10798 10797 10795 10794 10791 10784 10777 10774 10771 10767 10763 10758 10755 10753 10750 10746 10743 10739 10735 10731 10724 10718 10714 10708 10703 10698 10693 10690 10688 10687 10685 10681 10676 10671 10667 10662 10657 10653 10648 10643 10638 10633 10628 10623 10618 10613 10608 10601 10594 10586 10579 10572 10567 10563 10560 10556 10552 10549 10547 10546 10545 10544 10544 10543 10544 10544 10544 10544 10544 10544 10544 10545 10546 10549 10551 10553 10556 10560 10564 10569 10575
10791 10790 10789 10787 10787 10785 10783 10781 10779 10774 10770 10766 10762 10757 10753 10749 10746 10744 10740 10737 10735 10731 10728 10723 10715 10711 10708 10700 10692 10689 10685 10681 10680 10678 10675 10671 10667 10662 10657 10653 10649 10644 10639 10634 10629 10623 10618 10613 10608 10604 10598 10591 10584 10576 10568 10562 10557 10554 10551 10548 10545 10542 10540 10539 10539 10538 10537 10537 10537 10538 10538 10538 10538 10538 10539 10539 10540 10541 10544 10547 10550 10554 10557 10561 10568
10780 10779 10778 10776 10775 10773 10771 10769 10766 10763 10759 10755 10750 10746 10743 10740 10736 10733 10731 10728 10724 10722 10721 10716 10709 10705 10701 10691 10683 10681 10677 10674 10672 10670 10666 10662 10657 10653 10649 10644 10640 10636 10630 10625 10619 10614 10608 10603 10598 10593 10586 10580 10573 10565 10558 10552 10547 10545 10542 10540 10538 10536 10534 10533 10532 10532 10532 10531 10531 10533 10533 10533 10533 10533 10534 10534 10534 10536 10539 10541 10545 10549 10551 10554 10560
10769 10767 10766 10765 10763 10762 10760 10757 10754 10751 10747 10743 10739 10735 10732 10730 10727 10724 10721 10718 10715 10713 10711 10709 10706 10701 10693 10685 10679 10675 10671 10668 10666 10662 10658 10654 10649 10644 10640 10636 10631 10626 10621 10616 10609 10603 10599 10594 10588 10582 10575 10569 10562 10555 10548 10543 10539 10536 10534 10532 10530 10529 10528 10527 10526 10526 10526 10527 10527 10528 10529 10529 10529 10529 10529 10529 10530 10533 10535 10536 10539 10542 10544 10547 10553
10758 10756 10755 10753 10752 10750 10748 10745 10741 10739 10735 10731 10727 10724 10721 10719 10717 10715 10712 10708 10706 10703 10701 10702 10700 10693 10685 10679 10675 10670 10666 10663 10659 10655 10651 10647 10641 10636 10632 10627 10623 10618 10612 10606 10599 10593 10588 10583 10577 10571 10565 10559 10552 10545 10539 10535 10532 10529 10527 10525 10523 10522 10522 10521 10521 10521 10521 10522 10523 10524 10525 10525 10526 10525 10525 10525 10527 10528 10530 10531 10533 10536 10539 10542 10549
10747 10746 10744 10742 10740 10739 10736 10733 10732 10730 10725 10719 10716 10714 10711 10709 10707 10706 10704 10700 10698 10695 10691 10693 10693 10685 10677 10674 10670 10664 10660 10656 10652 10648 10643 10638 10633 10628 10624 10619 10614 10609 10603 10596 10590 10584 10578 10572 10566 10561 10555 10550 10543 10537 10531 10527 10525 10523 10521 10519 10517 10517 10516 10516 10516 10516 10517 10518 10519 10521 10522 10522 10522 10521 10521 10522 10523 10523 10524 10526 10527 10530 10533 10537 10544
10739 10736 10734 10732 10731 10730 10726 10724 10724 10721 10715 10710 10706 10704 10702 10700 10698 10697 10696 10694 10691 10687 10682 10682 10682 10678 10671 10667 10663 10657 10653 10648 10644 10639 10635 10630 10625 10620 10615 10611 10606 10600 10593 10586 10580 10574 10568 10561 10555 10550 10546 10540 10535 10530 10524 10521 10518 10516 10514 10513 10512 10511 10511 10511 10511 10512 10513 10514 10516 10518 10518 10519 10518 10518 10517 10518 10518 10519 10520 10521 10522 10524 10528 10532 10538
10730 10728 10727 10725 10723 10721 10718 10714 10712 10709 10703 10699 10695 10693 10692 10692 10690 10689 10687 10685 10683 10680 10676 10672 10670 10667 10663 10658 10654 10649 10644 10639 10635 10630 10625 10621 10616 10611 10605 10601 10596 10590 10583 10577 10571 10564 10558 10551 10546 10541 10537 10532 10528 10523 10518 10514 10512 10510 10509 10507 10507 10506 10506 10506 10507 10508 10509 10511 10513 10515 10516 10516 10515 10514 10514 10514 10515 10515 10515 10516 10518 10520 10523 10527 10533
10722 10721 10720 10718 10714 10711 10708 10704 10700 10696 10691 10687 10684 10681 10680 10680 10679 10678 10677 10675 10672 10670 10666 10662 10659 10655 10651 10648 10643 10639 10634 10629 10624 10619 10614 10610 10605 10600 10595 10590 10585 10579 10573 10567 10561 10554 10548 10542 10537 10533 10529 10525 10520 10516 10511 10508 10506 10504 10503 10502 10502 10501 10501 10502 10503 10504 10506 10508 10510 10512 10513 10513 10512 10511 10511 10511 10511 10511 10512 10513 10515 10516 10519 10523 10529
10714 10714 10712 10709 10705 10701 10699 10695 10691 10688 10684 10681 10678 10675 10673 10671 10669 10667 10665 10663 10660 10656 10653 10650 10647 10643 10639 10635 10631 10627 10623 10618 10612 10607 10602 10598 10593 10588 10584 10579 10574 10568 10562 10557 10551 10545 10539 10534 10530 10526 10522 10518 10513 10509 10505 10502 10500 10499 10498 10497 10497 10496 10497 10498 10499 10501 10503 10505 10507 10509 10510 10510 10509 10508 10508 10509 10509 10508 10509 10510 10512 10513 10516 10519 10525
10706 10706 10705 10701 10698 10695 10692 10689 10686 10683 10680 10676 10674 10671 10668 10665 10662 10659 10655 10652 10648 10645 10641 10637 10634 10630 10626 10622 10618 10614 10610 10605 10600 10595 10590 10586 10582 10577 10573 10568 10563 10557 10552 10546 10541 10536 10531 10527 10522 10518 10515 10510 10506 10503 10499 10496 10494 10494 10493 10492 10492 10492 10493 10494 10496 10498 10500 10502 10505 10506 10507 10507 10506 10506 10506 10507 10507 10506 10507 10508 10509 10511 10513 10516 10521
10695 10697 10697 10695 10692 10689 10686 10683 10679 10676 10673 10670 10667 10663 10660 10657 10653 10649 10645 10641 10637 10634 10631 10627 10622 10618 10613 10609 10605 10602 10598 10593 10587 10583 10579 10575 10571 10566 10562 10557 10552 10546 10541 10537 10532 10528 10523 10519 10515 10511 10507 10503 10499 10496 10493 10490 10488 10488 10488 10488 10488 10488 10489 10491 10493 10495 10497 10500 10502 10503 10504 10504 10504 10504 10505 10505 10505 10505 10506 10506 10507 10509 10511 10514 10518
10686 10686 10686 10685 10683 10680 10677 10674 10671 10668 10665 10662 10659 10656 10652 10648 10643 10639 10635 10631 10628 10624 10620 10616 10610 10605 10600 10596 10593 10590 10586 10580 10575 10571 10568 10564 10560 10555 10550 10546 10541 10536 10532 10528 10524 10520 10516 10511 10507 10503 10499 10496 10493 10490 10487 10485 10483 10483 10483 10483 10483 10484 10485 10487 10489 10492 10494 10497 10499 10500 10501 10502 10502 10502 10503 10503 10503 10504 10505 10505 10506 10507 10509 10512 10516
10676 10674 10673 10672 10670 10668 10666 10664 10661 10659 10656 10653 10650 10646 10642 10637 10633 10628 10624 10621 10617 10613 10608 10602 10597 10591 10586 10583 10581 10578 10573 10567 10562 10559 10556 10553 10549 10544 10538 10534 10530 10526 10522 10519 10515 10511 10507 10503 10499 10496 10492 10489 10486 10483 10481 10480 10478 10477 10478 10479 10479 10480 10481 10483 10486 10488 10490 10493 10496 10497 10498 10499 10499 10500 10501 10501 10502 10503 10504 10504 10505 10506 10508 10511 10515
10664 10662 10661 10659 10657 10655 10654 10652 10650 10648 10645 10642 10638 10634 10629 10625 10621 10617 10613 10609 10605 10600 10595 10588 10582 10578 10574 10571 10568 10565 10560 10555 10551 10547 10544 10541 10537 10532 10527 10523 10520 10516 10513 10510 10506 10502 10499 10496 10492 10488 10485 10482 10479 10477 10475 10474 10473 10473 10473 10474 10475 10476 10477 10480 10482 10484 10486 10489 10492 10494 10495 10496 10497 10498 10499 10500 10501 10502 10503 10503 10504 10506 10508 10511 10515
10653 10651 10650 10648 10646 10645 10643 10641 10639 10636 10632 10628 10624 10620 10617 10613 10609 10605 10601 10596 10592 10588 10581 10573 10569 10565 10562 10559 10556 10551 10547 10543 10539 10535 10532 10528 10524 10520 10515 10512 10510 10506 10503 10500 10496 10493 10490 10487 10484 10481 10478 10475 10473 10470 10469 10468 10468 10468 10468 10469 10470 10471 10473 10475 10478 10480 10483 10485 10488 10490 10492 10493 10494 10495 10497 10498 10499 10500 10502 10503 10504 10505 10507 10511 10515
10641 10640 10638 10636 10634 10633 10630 10628 10625 10622 10617 10614 10611 10608 10605 10601 10598 10595 10591 10586 10582 10577 10568 10559 10557 10555 10551 10547 10545 10540 10535 10531 10526 10521 10518 10515 10511 10508 10506 10503 10500 10495 10492 10489 10487 10484 10481 10478 10475 10473 10471 10468 10466 10464 10463 10463 10463 10463 10463 10464 10465 10466 10468 10471 10474 10477 10479 10481 10484 10486 10488 10489 10491 10493 10495 10496 10497 10499 10501 10503 10504 10505 10507 10510 10514
10629 10627 10625 10623 10621 10619 10617 10614 10612 10609 10605 10602 10599 10596 10594 10591 10588 10586 10582 10576 10571 10567 10559 10550 10547 10546 10542 10537 10534 10529 10524 10519 10514 10510 10507 10504 10500 10499 10497 10494 10489 10485 10481 10479 10477 10474 10471 10469 10467 10466 10464 10462 10459 10458 10457 10457 10457 10457 10458 10459 10460 10461 10463 10466 10470 10473 10475 10477 10480 10482 10484 10486 10488 10489 10492 10494 10495 10497 10499 10501 10503 10505 10506 10508 10512
10616 10615 10613 10610 10608 10606 10603 10601 10599 10597 10594 10591 10588 10585 10584 10581 10579 10577 10573 10565 10558 10555 10551 10544 10538 10534 10530 10526 10523 10519 10515 10511 10506 10501 10497 10493 10491 10490 10488 10484 10479 10474 10471 10469 10467 10464 10461 10460 10458 10458 10457 10455 10453 10452 10451 10451 10451 10452 10452 10453 10455 10456 10458 10461 10465 10468 10470 10472 10475 10477 10480 10483 10484 10486 10488 10491 10493 10495 10497 10499 10502 10504 10505 10508 10511
10605 10603 10601 10598 10596 10594 10592 10589 10587 10585 10583 10581 10578 10576 10574 10572 10570 10566 10560 10552 10545 10543 10540 10535 10528 10523 10518 10515 10512 10509 10506 10502 10497 10492 10486 10482 10480 10480 10477 10473 10469 10465 10462 10459 10457 10454 10452 10451 10450 10449 10449 10448 10447 10446 10446 10445 10445 10446 10447 10448 10449 10451 10453 10456 10460 10463 10466 10468 10470 10473 10476 10478 10480 10483 10485 10487 10490 10492 10494 10497 10500 10502 10504 10508 10510
10595 10593 10590 10588 10585 10584 10581 10578 10576 10574 10572 10570 10568 10565 10563 10561 10559 10555 10547 10539 10534 10530 10526 10520 10515 10511 10508 10505 10501 10498 10495 10491 10486 10481 10475 10472 10470 10469 10466 10462 10459 10456 10453 10450 10448 10446 10444 10443 10443 10441 10441 10440 10440 10440 10440 10439 10439 10439 10440 10442 10443 10445 10447 10450 10454 10458 10461 10463 10465 10468 10471 10474 10476 10479 10481 10483 10486 10489 10491 10494 10497 10499 10502 10506 10509
10582 10580 10579 10577 10575 10572 10569 10567 10564 10562 10561 10559 10556 10553 10550 10548 10546 10542 10535 10529 10524 10519 10513 10508 10504 10500 10497 10494 10490 10486 10483 10480 10476 10471 10466 10463 10460 10458 10455 10452 10449 10446 10444 10442 10440 10438 10437 10436 10435 10434 10433 10433 10433 10433 10433 10433 10433 10433 10434 10435 10437 10439 10441 10444 10448 10451 10455 10458 10460 10463 10466 10469 10471 10474 10477 10479 10482 10485 10488 10491 10494 10496 10500 10503 10507
10569 10568 10567 10566 10564 10561 10558 10556 10553 10551 10550 10547 10544 10541 10538 10535 10532 10528 10523 10518 10513 10507 10502 10497 10493 10490 10487 10483 10479 10475 10472 10469 10465 10461 10457 10453 10450 10447 10444 10442 10441 10438 10436 10434 10432 10431 10429 10429 10428 10427 10426 10426 10425 10425 10426 10426 10426 10427 10427 10429 10430 10432 10435 10438 10442 10445 10449 10452 10455 10458 10461 10464 10467 10469 10472 10475 10477 10481 10484 10487 10490 10493 10496 10500 10504
10560 10558 10556 10554 10552 10550 10547 10545 10543 10540 10538 10536 10532 10528 10525 10523 10519 10515 10511 10507 10502 10496 10491 10487 10482 10479 10476 10472 10468 10465 10462 10458 10455 10451 10448 10444 10441 10437 10435 10434 10433 10431 10429 10427 10425 10424 10422 10421 10421 10420 10419 10419 10418 10418 10418 10419 10420 10420 10421 10422 10424 10426 10428 10431 10435 10438 10442 10446 10449 10453 10455 10458 10461 10464 10467 10470 10473 10476 10479 10483 10486 10489 10492 10496 10500
10551 10549 10547 10544 10542 10539 10537 10534 10532 10530 10527 10524 10521 10516 10512 10510 10508 10504 10500 10495 10490 10485 10480 10476 10471 10467 10464 10461 10458 10455 10452 10449 10446 10442 10438 10435 10432 10429 10427 10426 10424 10423 10422 10420 10419 10418 10416 10415 10414 10413 10412 10412 10412 10412 10412 10413 10413 10414 10415 10416 10417 10419 10421 10424 10427 10431 10435 10439 10443 10447 10450 10453 10456 10459 10462 10465 10468 10471 10474 10478 10481 10485 10488 10491 10495
10540 10538 10536 10534 10531 10529 10527 10524 10522 10519 10516 10513 10510 10506 10502 10499 10496 10492 10488 10483 10478 10474 10470 10465 10460 10456 10453 10450 10448 10445 10442 10439 10437 10433 10430 10427 10424 10421 10420 10419 10417 10416 10415 10414 10413 10412 10410 10409 10408 10407 10406 10406 10406 10406 10406 10406 10407 10407 10408 10409 10410 10412 10415 10417 10420 10423 10428 10432 10437 10441 10444 10447 10450 10453 10456 10459 10463 10465 10469 10472 10476 10480 10483 10487 10490
10530 10528 10526 10524 10521 10519 10517 10514 10511 10508 10506 10502 10499 10496 10492 10489 10485 10480 10476 10472 10468 10464 10460 10456 10451 10446 10442 10439 10437 10435 10433 10431 10429 10426 10423 10420 10417 10414 10413 10412 10411 10410 10408 10407 10406 10406 10405 10403 10402 10401 10401 10401 10401 10401 10401 10401 10401 10401 10402 10403 10404 10406 10408 10411 10413 10416 10420 10425 10430 10434 10438 10441 10444 10447 10450 10454 10457 10460 10463 10467 10471 10475 10478 10482 10485
10518 10516 10514 10512 10510 10507 10505 10502 10499 10497 10495 10491 10488 10484 10481 10477 10474 10470 10466 10462 10459 10455 10451 10446 10441 10436 10432 10429 10427 10425 10423 10422 10421 10419 10416 10413 10411 10408 10407 10406 10405 10404 10402 10401 10401 10400 10399 10398 10397 10397 10396 10396 10396 10396 10396 10396 10396 10397 10397 10398 10399 10400 10402 10404 10407 10409 10412 10417 10422 10427 10431 10435 10438 10440 10444 10448 10451 10454 10458 10461 10465 10469 10473 10476 10480
10504 10503 10502 10500 10497 10494 10492 10489 10487 10485 10482 10479 10476 10473 10469 10466 10462 10459 10456 10453 10449 10445 10441 10437 10432 10427 10423 10421 10418 10416 10414 10414 10413 10412 10409 10406 10405 10403 10401 10400 10399 10398 10397 10396 10396 10395 10394 10393 10392 10392 10392 10392 10392 10392 10392 10392 10392 10392 10393 10393 10394 10394 10396 10398 10400 10402 10405 10410 10414 10419 10423 10428 10431 10434 10438 10442 10446 10449 10452 10456 10460 10464 10467 10471 10474
10488 10487 10487 10485 10483 10481 10479 10477 10475 10473 10470 10468 10466 10462 10459 10455 10452 10449 10447 10444 10440 10436 10432 10427 10423 10420 10417 10415 10412 10410 10407 10406 10406 10404 10402 10400 10399 10398 10397 10395 10394 10393 10392 10392 10391 10391 10389 10388 10387 10388 10389 10389 10388 10388 10388 10388 10388 10388 10388 10389 10389 10390 10391 10392 10394 10396 10399 10402 10407 10412 10416 10420 10424 10428 10432 10436 10440 10443 10446 10450 10454 10457 10461 10465 10469
10475 10474 10473 10472 10471 10470 10468 10467 10464 10462 10460 10458 10455 10452 10448 10444 10441 10440 10438 10435 10432 10428 10424 10420 10416 10413 10411 10409 10407 10404 10402 10401 10400 10398 10396 10394 10393 10392 10392 10391 10389 10388 10388 10387 10387 10387 10385 10383 10383 10384 10384 10384 10384 10384 10384 10384 10384 10384 10384 10384 10385 10385 10386 10387 10389 10391 10393 10396 10400 10404 10408 10412 10417 10421 10425 10429 10433 10436 10440 10444 10448 10451 10455 10458 10462
10466 10464 10463 10462 10461 10460 10459 10457 10454 10452 10450 10447 10445 10441 10438 10435 10433 10430 10429 10427 10424 10421 10417 10413 10409 10407 10405 10404 10402 10399 10397 10396 10395 10394 10391 10389 10387 10387 10386 10386 10384 10383 10383 10383 10383 10382 10380 10379 10378 10379 10380 10380 10380 10380 10380 10380 10380 10380 10380 10381 10381 10381 10382 10383 10383 10385 10387 10389 10392 10396 10400 10405 10409 10414 10418 10422 10426 10429 10433 10437 10441 10445 10448 10451 10455